{"data":{"norad_id":65168,"epoch":"2026-05-25T04:17:25.460160Z","epoch_age_seconds":59338,"freshness":"FRESH","line1":"1 65168U 25174E   26145.17876690  .00000049  00000+0  80501-4 0  9997","line2":"2 65168  86.4901 259.6404 0001922  91.1256 269.0098 13.24405923 37742","mean_motion":13.24405923,"eccentricity":0.0001922,"inclination_deg":86.4901,"raan_deg":259.6404,"arg_perigee_deg":91.1256,"mean_anomaly_deg":269.0098,"bstar":8.0501e-5,"rev_number":3774,"period_min":108.72799456666,"perigee_km":1166.4873163981,"apogee_km":1169.388027502,"semimajor_km":7546.0746719501,"source":"CELESTRAK","updated_at":"2026-05-25T13:38:05.173736Z"}}